This demonstration page uses our WeatherBlox Daily Observations layout. Learn more.

Left ArrowRight Arrow

40.92945, -100.16068

Hourly Observations for January 28, 2021

Temp ( °F °C ) Dew Point ( °F °C ) Humidity (%) Winds ( mph kmh ) Pressure ( in mb ) Visibility ( mi km ) Precip ( " mm )
12:15 am 00:15 Clear 6 -14.3 3 -16 87 87 SSE 7 11 30.59 1036 10 16.0934 0 0
12:35 am 00:35 Clear 6 -14.4 3 -16.2 86 86 SE 3 6 30.6 1036 10 16.0934 0 0
12:55 am 00:55 Clear 6 -14.3 4 -15.7 89 89 SSE 7 11 30.6 1036 10 16.0934 0 0
1:15 am 01:15 Clear 6 -14.2 3 -16.1 86 86 SSE 7 11 30.6 1036 10 16.0934 0 0
1:35 am 01:35 Clear 7 -14 4 -15.7 87 87 SSE 8 13 30.6 1036 10 16.0934 0 0
1:55 am 01:55 Clear 5 -15 2 -16.8 86 86 SSE 5 7 30.6 1036 10 16.0934 0 0
2:15 am 02:15 Clear 5 -14.9 2 -16.6 87 87 S 13 20 30.59 1036 10 16.0934 0 0
2:35 am 02:35 Clear 8 -13.1 5 -14.8 87 87 SSE 10 17 30.58 1035 10 16.0934 0 0
2:55 am 02:55 Clear 8 -13.5 5 -15.2 87 87 S 9 15 30.59 1036 10 16.0934 0 0
3:15 am 03:15 Clear 9 -12.9 6 -14.6 87 87 S 10 17 30.58 1036 10 16.0934 0 0
3:35 am 03:35 Mostly Cloudy 11 -11.8 8 -13.5 87 87 S 15 24 30.56 1035 10 16.0934 0 0
3:55 am 03:55 Cloudy 11 -11.5 9 -13 89 89 S 15 24 30.56 1035 7 11.26538 0 0
4:15 am 04:15 Cloudy with Mist and Fog 12 -11.2 9 -12.7 89 89 S 14 22 30.56 1035 4 6.43736 0 0
4:35 am 04:35 Cloudy with Mist and Fog 12 -11.1 9 -12.6 89 89 S 9 15 30.54 1034 4 6.43736 0 0
4:55 am 04:55 Cloudy with Mist and Fog 12 -11 10 -12.5 89 89 S 12 19 30.54 1034 4 6.43736 0 0
5:15 am 05:15 Cloudy with Mist and Fog 12 -11 10 -12.5 89 89 S 8 13 30.55 1035 4 6.43736 0 0
5:35 am 05:35 Cloudy with Mist and Fog 12 -11 10 -12.5 89 89 S 8 13 30.55 1035 3 4.82802 0 0
5:55 am 05:55 Cloudy with Mist and Fog 12 -11.2 9 -12.7 89 89 S 9 15 30.56 1035 3 4.82802 0 0
6:15 am 06:15 Cloudy with Mist and Fog 12 -11 10 -12.5 89 89 S 6 9 30.55 1035 4 6.43736 0 0
6:35 am 06:35 Cloudy 13 -10.6 10 -12 90 90 S 10 17 30.54 1034 7 11.26538 0 0
6:55 am 06:55 Cloudy with Mist and Fog 13 -10.5 10 -12 89 89 S 9 15 30.55 1034 4 6.43736 0 0
7:15 am 07:15 Cloudy with Mist and Fog 13 -10.5 10 -12 89 89 S 9 15 30.55 1034 5 8.0467 0 0
7:35 am 07:35 Cloudy with Mist and Fog 13 -10.5 10 -12 89 89 S 9 15 30.54 1034 5 8.0467 0 0
7:55 am 07:55 Cloudy with Mist and Fog 13 -10.6 10 -12.1 89 89 S 10 17 30.54 1034 4 6.43736 0 0
8:15 am 08:15 Cloudy with Mist and Fog 13 -10.5 10 -12 89 89 S 10 17 30.54 1034 3 4.82802 0 0
8:35 am 08:35 Cloudy with Mist and Fog 13 -10.5 10 -12 89 89 S 10 17 30.54 1034 3 4.82802 0 0
8:55 am 08:55 Cloudy with Mist and Fog 13 -10.3 11 -11.8 89 89 S 10 17 30.55 1034 4 6.43736 0 0
9:15 am 09:15 Cloudy with Mist and Fog 14 -10.1 11 -11.5 90 90 S 10 17 30.53 1034 3 4.82802 0 0
9:35 am 09:35 Cloudy with Mist and Fog 14 -10 11 -11.5 89 89 S 14 22 30.52 1034 2.5 4.02335 0 0
9:55 am 09:55 Cloudy with Mist and Fog 14 -9.8 12 -11.2 90 90 S 14 22 30.52 1034 2.5 4.02335 0 0
10:15 am 10:15 Cloudy with Light Snow 15 -9.6 12 -11 90 90 S 10 17 30.54 1034 1 1.60934 0 0
10:35 am 10:35 Cloudy with Light Snow 16 -9.1 13 -10.5 90 90 S 7 11 30.53 1034 0.75 1.207005 0 0
10:55 am 10:55 Cloudy with Light Snow 16 -9 13 -10.5 89 89 S 9 15 30.53 1034 1.5 2.41401 0 0
11:15 am 11:15 undefined N/A N/A N/A undefined N/A N/A N/A 0 0
11:35 am 11:35 undefined N/A N/A N/A undefined N/A N/A N/A 0 0
11:55 am 11:55 Cloudy with Mist and Fog 17 -8.2 15 -9.6 90 90 S 14 22 30.5 1033 3 4.82802 0.03 0.762
12:15 pm 12:15 Cloudy with Mist and Fog 17 -8.2 15 -9.5 90 90 S 12 19 30.49 1033 3 4.82802 0 0
12:35 pm 12:35 Cloudy with Mist and Fog 18 -7.7 16 -9.1 90 90 S 13 20 30.47 1032 2.5 4.02335 0 0
12:55 pm 12:55 Cloudy with Mist and Fog 19 -7.5 16 -8.8 91 91 S 15 24 30.45 1031 3 4.82802 0 0
1:15 pm 13:15 Cloudy with Mist and Fog 19 -7.2 17 -8.6 90 90 S 13 20 30.43 1031 1.75 2.816345 0 0
1:35 pm 13:35 Cloudy with Light Snow 19 -7.3 17 -8.6 91 91 S 15 24 30.42 1030 2 3.21868 0 0
1:55 pm 13:55 Cloudy with Mist and Fog 19 -7.1 17 -8.5 90 90 S 12 19 30.41 1030 3 4.82802 0 0
2:15 pm 14:15 Cloudy with Mist and Fog 20 -6.8 17 -8.3 89 89 S 14 22 30.4 1029 3 4.82802 0 0
2:35 pm 14:35 Cloudy with Mist and Fog 20 -6.5 18 -8 89 89 S 17 28 30.38 1029 5 8.0467 0 0
2:55 pm 14:55 Cloudy with Mist and Fog 21 -6.1 18 -7.7 89 89 S 16 26 30.38 1029 4 6.43736 0 0
3:15 pm 15:15 Cloudy with Mist and Fog 20 -6.4 18 -8 89 89 S 16 26 30.38 1029 3 4.82802 0 0
3:35 pm 15:35 Cloudy with Mist and Fog 20 -6.5 17 -8.1 89 89 SSW 12 19 30.37 1029 4 6.43736 0 0
3:55 pm 15:55 Cloudy with Mist and Fog 21 -6 18 -7.9 87 87 S 10 17 30.37 1028 2.5 4.02335 0 0
4:15 pm 16:15 Cloudy with Mist and Fog 22 -5.8 18 -7.6 87 87 S 15 24 30.37 1028 3 4.82802 0 0
4:35 pm 16:35 Cloudy with Mist and Fog 22 -5.7 19 -7.3 89 89 S 15 24 30.37 1028 3 4.82802 0 0
4:55 pm 16:55 Cloudy with Mist and Fog 22 -5.5 19 -7 89 89 SSW 12 19 30.36 1028 4 6.43736 0 0
5:15 pm 17:15 Cloudy with Mist and Fog 23 -5.2 20 -6.7 89 89 SSW 15 24 30.36 1028 5 8.0467 0 0
5:35 pm 17:35 Cloudy with Mist and Fog 23 -5.1 20 -6.6 89 89 SW 8 13 30.36 1028 5 8.0467 0 0
5:55 pm 17:55 Cloudy with Mist and Fog 23 -5 20 -6.5 89 89 SW 9 15 30.36 1028 5 8.0467 0 0
6:15 pm 18:15 Cloudy 23 -5 20 -6.5 89 89 SSW 6 9 30.35 1028 7 11.26538 0 0
6:35 pm 18:35 Cloudy 23 -5.1 20 -6.6 89 89 SSW 6 9 30.35 1028 7 11.26538 0 0
6:55 pm 18:55 Partly Cloudy 21 -6 19 -7.2 91 91 SSW 3 6 30.35 1028 7 11.26538 0 0
7:15 pm 19:15 Clear with Mist and Fog 19 -7.1 18 -8 93 93 Calm 30.35 1028 5 8.0467 0 0
7:35 pm 19:35 Clear with Mist and Fog 19 -7.2 17 -8.2 93 93 S 3 6 30.35 1028 2.5 4.02335 0 0
7:55 pm 19:55 Mostly Cloudy with Mist and Fog 19 -7.5 17 -8.6 92 92 SE 5 7 30.34 1028 3 4.82802 0 0
8:15 pm 20:15 Cloudy with Mist and Fog 19 -7 18 -8 93 93 Calm 30.36 1028 5 8.0467 0 0
8:35 pm 20:35 Cloudy with Mist and Fog 20 -6.5 18 -7.6 92 92 Calm 30.33 1027 5 8.0467 0 0
8:55 pm 20:55 Cloudy with Mist and Fog 22 -5.7 20 -6.6 93 93 SSE 3 6 30.32 1027 5 8.0467 0 0
9:15 pm 21:15 Cloudy with Mist and Fog 22 -5.3 21 -6.2 93 93 SSE 3 6 30.3 1026 5 8.0467 0 0
9:35 pm 21:35 Cloudy with Mist and Fog 23 -5 22 -5.7 95 95 SSE 3 6 30.3 1026 1.5 2.41401 0 0
9:55 pm 21:55 Cloudy with Freezing Fog 24 -4.6 22 -5.3 95 95 SSE 6 9 30.28 1026 0.25 0.402335 0 0
10:15 pm 22:15 Cloudy with Freezing Fog 24 -4.3 23 -5 95 95 S 6 9 30.27 1025 0.25 0.402335 0 0
10:35 pm 22:35 Cloudy with Freezing Fog 25 -4 24 -4.7 95 95 SSE 6 9 30.26 1025 0.25 0.402335 0 0
10:55 pm 22:55 Cloudy with Light Snow 26 -3.6 24 -4.3 95 95 SSE 7 11 30.24 1024 0.25 0.402335 0 0
11:15 pm 23:15 Cloudy with Freezing Fog 26 -3.5 24 -4.2 95 95 S 8 13 30.23 1024 0.25 0.402335 0 0
11:35 pm 23:35 Cloudy with Freezing Fog 26 -3.5 24 -4.2 95 95 S 7 11 30.22 1023 0.25 0.402335 0 0
11:55 pm 23:55 Cloudy with Freezing Fog 25 -4 24 -4.7 95 95 SSE 7 11 30.23 1024 0.25 0.402335 0 0

Powered by AerisWeather